Location: *
(43.0833°N, 13.0500°E)
Time: 23:27:01
(UTC+00:00)

CZ-4B R/B - Pass Details

Date: 15 November 2019
Orbit: 394 x 468 km, 97.6° (Epoch: 11 December)

Event Time Altitude Azimuth Distance (km) Brightness Sun altitude
Rises 16:11:06 0° 355° (N) 2,427 5.0 -5.3°
Reaches altitude 10° 16:13:33 10° 336° (NNW) 1,568 4.2 -5.8°
Maximum altitude 16:15:52 18° 292° (WNW) 1,185 4.3 -6.2°
Drops below altitude 10° 16:18:13 10° 248° (WSW) 1,586 6.0 -6.6°
Sets 16:20:43 0° 229° (SW) 2,466 6.6 -7.0°
